Left ArrowRight Arrow

38.20091, -84.87328

Hourly Observations for June 19, 2024

Temp ( °F °C ) Dew Point ( °F °C ) Humidity (%) Winds ( mph kmh ) Pressure ( in mb ) Visibility ( mi km ) Precip ( " mm )
12:53 am 00:53 Clear 79 26.1 69 20.6 72 72 Calm 30.13 1020 10 16 0.00 0.00
1:53 am 01:53 Clear 78 25.6 70 21.1 76 76 ESE 5 7 30.13 1020 10 16 0.00 0.00
2:53 am 02:53 Clear 75 23.9 70 21.1 84 84 Calm 30.14 1021 10 16 0.00 0.00
3:53 am 03:53 Clear 74 23.3 70 21.1 87 87 SE 3 6 30.14 1021 10 16 0.00 0.00
4:53 am 04:53 Clear 75 23.9 71 21.7 88 88 SE 3 6 30.14 1021 10 16 0.00 0.00
5:53 am 05:53 Clear 77 25 70 21.1 79 79 S 7 11 30.17 1022 10 16 0.00 0.00
6:53 am 06:53 Sunny 76 24.4 70 21.1 82 82 S 6 9 30.19 1023 10 16 0.00 0.00
7:53 am 07:53 Sunny 76 24.4 71 21.7 85 85 S 6 9 30.22 1023 10 16 0.00 0.00
8:53 am 08:53 Partly Cloudy 79 26.1 71 21.7 77 77 SSW 6 9 30.24 1024 10 16 0.00 0.00
9:53 am 09:53 Mostly Cloudy 81 27.2 69 20.6 67 67 SW 8 13 30.25 1025 10 16 0.00 0.00
10:53 am 10:53 Mostly Cloudy 84 28.9 68 20 59 59 SW 7 11 30.26 1025 10 16 0.00 0.00
11:53 am 11:53 Sunny 84 28.9 69 20.6 61 61 SW 7 11 30.26 1025 10 16 0.00 0.00
12:53 pm 12:53 Partly Cloudy 84 28.9 68 20 59 59 WSW 6 9 30.26 1025 10 16 0.00 0.00
1:53 pm 13:53 Sunny 85 29.4 68 20 57 57 WNW 6 9 30.25 1024 10 16 0.00 0.00
2:53 pm 14:53 Sunny 86 30 68 20 55 55 SW 8 13 30.24 1024 10 16 0.00 0.00
3:53 pm 15:53 Partly Cloudy 86 30 69 20.6 57 57 Calm 30.23 1024 10 16 0.00 0.00
4:53 pm 16:53 Mostly Cloudy 85 29.4 69 20.6 59 59 Calm 30.23 1024 10 16 0.00 0.00
5:53 pm 17:53 Partly Cloudy 85 29.4 70 21.1 61 61 SW 5 7 30.22 1023 10 16 0.00 0.00
6:53 pm 18:53 Sunny 85 29.4 70 21.1 61 61 WSW 5 7 30.21 1023 10 16 0.00 0.00
7:53 pm 19:53 Mostly Sunny 84 28.9 71 21.7 65 65 WSW 5 7 30.22 1023 10 16 0.00 0.00
8:53 pm 20:53 Sunny 82 27.8 72 22.2 72 72 WSW 3 6 30.21 1023 10 16 0.00 0.00
9:53 pm 21:53 Clear 77 25 71 21.7 82 82 Calm 30.23 1024 10 16 0.00 0.00
10:53 pm 22:53 Clear 75 23.9 71 21.7 88 88 Calm 30.24 1024 10 16 0.00 0.00
11:53 pm 23:53 Clear 73 22.8 70 21.1 90 90 Calm 30.25 1025 10 16 0.00 0.00

Powered by Vaisala Xweather